GW5247 Weather Reports


time (UTC)temp
C
wind
direction
speed
KPH
gust
KPH
rain 1hr
cm
rain 24hr
cm
rain mn
cm
humidity
%
barometer
mb
20260503005521 10 0.0 0.0 0.00 1.24 1.24 93 1013.7
20260503004521 10 0.0 0.0 0.00 1.24 1.24 92 1013.6
20260503003521 11 0.0 0.0 0.00 1.24 1.24 91 1013.4
20260503002521 11 115 0.0 1.6 0.00 1.24 1.24 91 1013.3
20260503001521 11 325 0.0 0.0 0.00 1.24 1.24 91 1013.0
20260503000522 11 16 1.6 1.6 0.00 1.24 1.24 90 1012.8
20260502235522 11 5 0.0 1.6 0.00 1.24 1.24 90 1012.7
20260502234522 11 37 1.6 3.2 0.00 1.24 1.24 89 1012.6
20260502233558 11 14 1.6 3.2 0.00 1.24 1.24 89 1012.5
20260502232522 11 96 0.0 3.2 0.00 1.24 1.24 88 1012.5
20260502231523 12 59 0.0 1.6 0.00 1.24 1.24 87 1012.4
20260502230523 12 19 0.0 1.6 0.00 1.24 1.24 87 1012.3
20260502225523 12 39 1.6 3.2 0.00 1.24 1.24 87 1012.3
20260502224523 12 19 1.6 1.6 0.00 1.24 1.24 86 1012.3
20260502223524 12 71 1.6 3.2 0.00 1.24 1.24 85 1012.3
20260502222524 12 15 1.6 1.6 0.00 1.24 1.24 85 1012.3
20260502221524 12 169 0.0 1.6 0.00 1.24 1.24 84 1012.2
20260502220524 12 19 1.6 3.2 0.00 1.24 1.24 83 1012.0
20260502215524 12 66 1.6 3.2 0.00 1.24 1.24 84 1011.8
20260502214545 12 67 1.6 3.2 0.00 1.24 1.24 82 1012.0
20260502213524 12 16 1.6 3.2 0.00 1.24 1.24 83 1011.9
20260502212545 12 14 3.2 6.4 0.00 1.24 1.24 82 1011.8
20260502211525 12 21 1.6 4.8 0.00 1.24 1.24 82 1011.9
20260502210545 12 359 1.6 6.4 0.00 1.24 1.24 82 1011.9
20260502205535 12 17 3.2 8.0 0.00 1.24 1.24 83 1012.0
20260502204525 12 2 1.6 6.4 0.00 1.24 1.24 83 1012.0
20260502203525 12 39 1.6 4.8 0.00 1.24 1.24 83 1012.0
20260502202525 12 31 3.2 4.8 0.00 1.24 1.24 83 1012.1
20260502201525 12 9 3.2 6.4 0.00 1.24 1.24 84 1012.0
20260502200517 12 357 3.2 9.7 0.00 1.24 1.24 82 1011.9
20260502195517 12 4 3.2 9.7 0.00 1.24 1.24 83 1012.0
20260502194537 12 359 4.8 9.7 0.00 1.24 1.24 83 1012.1
20260502193517 12 358 6.4 16.1 0.00 1.27 1.24 84 1012.1
20260502192537 12 356 4.8 12.9 0.00 1.27 1.24 83 1012.3
20260502191517 12 13 4.8 11.3 0.00 1.27 1.24 85 1012.4
20260502190537 12 2 4.8 9.7 0.03 1.27 1.24 87 1012.4
20260502185517 12 357 6.4 14.5 0.03 1.27 1.24 88 1012.5
20260502184517 11 8 4.8 12.9 0.03 1.27 1.24 89 1012.5
20260502183518 12 5 6.4 11.3 0.05 1.27 1.24 89 1012.4
20260502182538 11 2 4.8 16.1 0.05 1.27 1.24 90 1012.6
20260502181538 11 1 4.8 9.7 0.05 1.27 1.24 90 1013.0
20260502180518 11 22 3.2 9.7 0.05 1.30 1.22 91 1012.9
20260502170518 11 13 4.8 14.5 0.23 1.32 1.19 91 1013.3
20260502163519 11 10 4.8 11.3 0.30 1.27 1.12 91 1013.5
20260502162519 11 3 6.4 14.5 0.25 1.22 1.07 91 1014.1
20260502161519 11 7 4.8 9.7 0.23 1.17 1.04 92 1014.0
20260502160519 11 3 6.4 12.9 0.18 1.09 0.97 91 1014.0
20260502151520 11 4 6.4 9.7 0.15 0.94 0.79 93 1013.5
20260502150520 11 17 4.8 12.9 0.18 0.91 0.79 92 1013.7
20260502130516 11 7 8.0 12.9 0.18 0.61 0.43 91 1013.0
20260502123516 11 12 6.4 11.3 0.23 0.58 0.38 91 1012.6
20260502122516 11 6 6.4 12.9 0.20 0.56 0.38 91 1012.4
20260502121516 11 6 6.4 16.1 0.18 0.51 0.33 90 1012.4
20260502120516 11 10 8.0 16.1 0.15 0.43 0.25 90 1012.5
20260502115516 11 3 6.4 12.9 0.13 0.41 0.23 90 1012.5
20260502114517 11 2 6.4 12.9 0.13 0.38 0.18 90 1012.6
20260502113517 11 7 8.0 12.9 0.13 0.36 0.18 89 1012.6
20260502112537 11 6 8.0 14.5 0.15 0.36 0.15 88 1012.7
20260502111515 11 11 8.0 17.7 0.15 0.33 0.15 88 1012.9
20260502110516 11 358 8.0 12.9 0.10 0.30 0.10 88 1012.9
20260502105516 11 1 8.0 12.9 0.08 0.28 0.08 89 1012.8
20260502104516 11 357 8.0 12.9 0.08 0.25 0.08 89 1012.7
20260502103516 11 16 9.7 14.5 0.03 0.23 0.03 89 1012.8
20260502102516 11 10 8.0 14.5 0.03 0.20 0.03 89 1012.7
20260502101516 11 10 8.0 16.1 0.00 0.18 0.00 89 1012.7
20260502100517 11 14 6.4 14.5 0.00 0.18 0.00 89 1012.8
20260502091516 11 15 4.8 9.7 0.00 0.18 0.00 92 1012.8
20260502090516 11 16 6.4 11.3 0.00 0.18 0.00 92 1012.7
20260502071515 11 18 4.8 6.4 0.00 0.18 0.00 95 1011.8
20260502070515 11 19 4.8 6.4 0.00 0.18 0.00 95 1011.9
20260502065636 11 15 4.8 8.0 0.00 0.18 0.00 95 1012.0
20260502064516 11 11 3.2 6.4 0.00 0.18 0.00 95 1012.2
20260502063516 11 15 4.8 6.4 0.00 0.18 0.00 95 1012.2
20260502062516 11 14 4.8 6.4 0.00 0.18 0.00 95 1012.3
20260502061516 11 18 1.6 4.8 0.00 0.18 0.00 95 1012.4
20260502060516 11 16 0.0 1.6 0.00 0.18 0.00 95 1012.5
20260502055516 11 30 0.0 1.6 0.00 0.18 0.00 95 1012.5
20260502054516 11 46 0.0 1.6 0.00 0.18 0.00 95 1012.7
20260502053516 11 30 0.0 1.6 0.00 0.18 0.00 95 1012.9
20260502052537 11 28 0.0 3.2 0.00 0.18 0.00 95 1012.9
20260502051517 11 45 1.6 3.2 0.00 0.18 0.00 95 1013.1
20260502050517 11 18 3.2 4.8 0.00 0.18 0.00 95 1013.2
20260502045518 11 11 1.6 4.8 0.00 0.18 0.00 95 1013.2
20260502044517 11 27 1.6 3.2 0.00 0.18 0.00 95 1013.2
20260502043537 11 12 0.0 3.2 0.00 0.18 0.00 95 1013.2
20260502042518 11 12 1.6 4.8 0.00 0.18 0.00 95 1013.3
20260502041515 11 9 3.2 4.8 0.00 0.18 0.00 95 1013.3
20260502040515 11 16 1.6 4.8 0.00 0.18 0.00 95 1013.2
20260502035515 11 1 1.6 3.2 0.00 0.18 0.18 95 1013.2
20260502034515 10 46 0.0 3.2 0.00 0.18 0.18 95 1013.3
20260502033515 10 53 0.0 3.2 0.00 0.18 0.18 95 1013.4
20260502032515 10 0 0.0 3.2 0.00 0.18 0.18 94 1013.6
20260502031516 10 14 0.0 3.2 0.00 0.18 0.18 94 1013.6
20260502030516 10 11 0.0 3.2 0.00 0.18 0.18 94 1013.8
20260502025516 10 338 0.0 1.6 0.00 0.18 0.18 94 1013.9
20260502024516 10 22 0.0 3.2 0.00 0.18 0.18 94 1013.9
20260502023517 10 5 1.6 4.8 0.00 0.18 0.18 93 1014.0
20260502022517 11 14 1.6 3.2 0.00 0.18 0.18 93 1014.0
20260502021517 11 52 0.0 3.2 0.00 0.18 0.18 93 1013.9
20260502020517 11 37 0.0 3.2 0.00 0.18 0.18 93 1014.1
20260502015537 11 57 0.0 3.2 0.00 0.18 0.18 93 1013.9
20260502014517 11 352 0.0 1.6 0.00 0.18 0.18 92 1013.9
20260502013518 11 52 0.0 3.2 0.00 0.18 0.18 92 1013.8
20260502012537 11 29 0.0 3.2 0.00 0.18 0.18 92 1013.9
20260502011518 11 42 0.0 3.2 0.00 0.18 0.18 92 1013.8
20260502010538 11 21 0.0 3.2 0.00 0.18 0.18 91 1013.5